Regional Weather Roundup
Issued by NWS Albany, NY

Current Version | Previous Version | Graphics & Text | Print | Product List | Glossary Off
Versions: 1 2 3 4 5 6 7 8 9 10 11 12 13 14 15 16 17 18 19 20 21 22 23 24 25 26 27

000
ASUS41 KALY 281910
RWRALY

NEW YORK STATE HOURLY WEATHER ROUNDUP
NATIONAL WEATHER SERVICE ALBANY NY
300 PM EDT SAT MAY 28 2016

NOTE: "FAIR" INDICATES FEW OR NO CLOUDS BELOW 12,000 FEET WITH NO
SIGNIFICANT WEATHER AND/OR NO OBSTRUCTIONS TO VISIBILITY.

NYZ032-033-038>043-046>054-057>066-NYZ062>081-082-084-282000-
EAST


CITY           SKY/WX    TMP DP  RH WIND       PRES   REMARKS
ALBANY         PTSUNNY   92  61  35 NW3       30.06F HX  92
GLENS FALLS    PTSUNNY   88  64  44 SE9       30.05F
POUGHKEEPSIE   SUNNY     94  65  38 SW10      30.04F HX  96
NEWBURGH       MOSUNNY   88  66  48 SW7       30.09F HX  90
MONTGOMERY     MOSUNNY   90  69  50 SW13G20   30.06F HX  94
WHITE PLAINS   MOSUNNY   86  66  51 S9        30.09F
ISLIP          MOSUNNY   79  64  60 SW15      30.11F
NEW YORK CITY  MOSUNNY   89  71  55 S16       30.08F HX  95
CENTRAL PARK   SUNNY     90  66  45 VRB7      30.10F HX  92
$$

NYZ005>009-017-018-044>046-055-056-282000-
CENTRAL


CITY           SKY/WX    TMP DP  RH WIND       PRES   REMARKS
FULTON         MOSUNNY   93  61  34 VRB5      30.07F HX  93
SYRACUSE       PTSUNNY   90  60  36 W7        30.06F
ROME           MOSUNNY   88  58  36 VRB5      30.08F
ELMIRA         MOSUNNY   91  57  31 CALM      30.09F
BINGHAMTON     SUNNY     86  60  41 NW7       30.14F
MONTICELLO     CLOUDY    86  64  48 W3        30.14F
$$

NYZ026>034-041>043-087-282000-
NORTH


CITY           SKY/WX    TMP DP  RH WIND       PRES   REMARKS
WATERTOWN      SUNNY     87  62  43 W7        30.08F
FORT DRUM      NOT AVBL
MASSENA        SUNNY     89  60  37 NW9       30.06F
SARANAC LAKE   PTSUNNY   84  54  35 VRB5      30.11F
PLATTSBURGH    MOSUNNY   82  64  54 NE12      30.07F
$$

NYZ001>004-010>016-019>021-085-282000-
WEST


CITY           SKY/WX    TMP DP  RH WIND       PRES   REMARKS
NIAGARA FALLS  PTSUNNY   90  62  39 SW10      30.06F HX  90
BUFFALO        MOSUNNY   88  60  38 SW8       30.08F
DUNKIRK        MOSUNNY   87  63  44 N7        30.08F
JAMESTOWN      MOSUNNY   82  63  51 SW6       30.13F
WELLSVILLE     MOSUNNY   86  59  39 CALM      30.17F
ROCHESTER      PTSUNNY   82  68  62 SE8       30.09R
PENN YAN       MOSUNNY   89  61  38 SE3       30.10F
$$

             KEY
       WCI = WIND CHILL INDEX
       VSB = VISIBILITY
       HX  = HEAT INDEX
$$




USA.gov is the U.S. government's official web portal to all federal, state and local government web resources and services.